OPTUS D2 1 32252U 07044A 21062.93222142 -.00000193 00000-0 00000+0 0 9998 2 32252 0.0537 292.9215 0003660 52.9855 303.5792 1.00274100 49074 INTELSAT 11 (IS-11) 1 32253U 07044B 21062.46271771 -.00000277 00000-0 00000-0 0 9993 2 32253 0.0180 152.9435 0002032 209.3812 282.6915 1.00272157 49211 ARIANE 5 R/B 1 32254U 07044C 21062.48647761 .00000187 00000-0 27804-3 0 9995 2 32254 4.3548 132.9781 7088969 181.4619 174.0967 2.46961815120380 ARIANE 5 DEB [SYLDA] 1 32255U 07044D 21062.62376726 .00000081 00000-0 21579-2 0 9997 2 32255 4.3414 77.7423 7165748 300.6731 297.6579 2.26321783110701